Regional Weather Roundup
Issued by NWS Raleigh/Durham, NC

Home | Current Version | Previous Version | Text Only | Print | Product List | Glossary On
Versions: 1 2 3 4 5 6 7 8 9 10 11 12 13 14 15 16 17 18 19 20 21 22 23 24 25 26 27
000
ASUS42 KRAH 260910
RWRRAH
NORTH CAROLINA WEATHER ROUNDUP
NATIONAL WEATHER SERVICE RALEIGH NC
500 AM EDT SUN OCT 26 2014

NOTE: "FAIR" INDICATES FEW OR NO CLOUDS BELOW 12,000 FEET WITH NO
SIGNIFICANT WEATHER AND/OR OBSTRUCTIONS TO VISIBILITY.

NCZ001-053-055-056-065-067-261000-
WESTERN NORTH CAROLINA

CITY           SKY/WX    TMP DP  RH WIND       PRES   REMARKS
ASHEVILLE      CLEAR     45  42  89 CALM      30.00F
JEFFERSON      CLEAR     58  45  62 NW18G36   29.90F
MORGANTON      CLEAR     58  50  74 S3        29.96F
HICKORY        CLEAR     61  49  64 SW8       29.91F
RUTHERFORDTON  CLEAR     66  50  56 W12G25    29.93F
MOUNT AIRY     CLEAR     58  51  79 CALM      29.88F
BOONE          NOT AVBL
$$

NCZ021-022-025-041-071-084-088-261000-
CENTRAL NORTH CAROLINA

CITY           SKY/WX    TMP DP  RH WIND       PRES   REMARKS
CHARLOTTE      CLEAR     54  47  77 NW5       29.90F
GREENSBORO     CLEAR     57  48  72 W7        29.86S
WINSTON-SALEM  CLEAR     62  48  60 W6        29.88F
RALEIGH-DURHAM CLEAR     49  43  80 SW5       29.82S
FORT BRAGG     CLEAR     53  45  73 W3        29.84S
FAYETTEVILLE   CLEAR     55  45  68 W8        29.84F
BURLINGTON     CLEAR     57  47  69 W7        29.84F
LAURINBURG     CLEAR     45  43  93 W6        29.87F
$$

NCZ011-015-027-028-043-044-047-080-103-261000-
NORTHEASTERN NORTH CAROLINA

CITY           SKY/WX    TMP DP  RH WIND       PRES   REMARKS
ROCKY MT-WILSO CLEAR     51  44  77 SW3       29.81S
GREENVILLE     CLEAR     55  45  67 W5        29.82F
WASHINGTON     CLEAR     52  44  74 CALM      29.80S
ELIZABETH CITY CLEAR     59  46  62 W10       29.74F
MANTEO         CLEAR     58  47  67 W8        29.75F
CAPE HATTERAS  CLEAR     63  52  67 W12G21    29.77S
$$

NCZ078-087-090-091-093-098-101-261000-
SOUTHEASTERN NORTH CAROLINA

CITY           SKY/WX    TMP DP  RH WIND       PRES   REMARKS
LUMBERTON      CLEAR     49  44  83 W5        29.86S
GOLDSBORO      CLEAR     52  49  88 W3        29.81S
KINSTON        CLEAR     55  45  69 W5        29.82S
KENANSVILLE    CLEAR     51  44  79 SW5       29.84S
NEW BERN       CLEAR     56  44  64 W7        29.82S
CHERRY POINT   CLEAR     57  43  59 W13       29.82S
BEAUFORT       CLEAR     62  44  51 W14       29.81S
JACKSONVILLE   CLEAR     53  44  71 W8        29.83R
WILMINGTON     CLEAR     55  45  68 W7        29.85S
$$




USA.gov is the U.S. government's official web portal to all federal, state and local government web resources and services.